Regional Weather Roundup
Issued by NWS Kansas City/Pleasant Hill, MO

Home | Current Version | Previous Version | Text Only | Print | Product List | Glossary On
Versions: 1 2 3 4 5 6 7 8 9 10 11 12 13 14 15 16 17 18 19 20 21 22 23 24 25 26 27
000
ASUS43 KEAX 172210
RWREAX

WEATHER ROUNDUP FOR EASTERN KANSAS AND NORTHWEST MISSOURI
NATIONAL WEATHER SERVICE KANSAS CITY/PLEASANT HILL MO
400 PM CST WED JAN 17 2018

KSZ040-057-103>105-MOZ028-029-037-043-172300-
...KANSAS CITY METROPOLITAN AREA...

CITY           SKY/WX    TMP DP  RH WIND       PRES   REMARKS
K.C. INTL      SUNNY     24  10  55 SW10      30.50F WCI  14
K.C. DOWNTOWN  SUNNY     26   9  48 SW14      30.53F WCI  14
LEES SUMMIT    SUNNY     23  11  60 SW14      30.52F WCI  11
OLATHE - IXD   SUNNY     23  11  60 S13       30.52F WCI  11
OLATHE - OJC   SUNNY     22  10  60 S8        30.51F WCI  12
LAWRENCE       SUNNY     25  12  58 S13       30.53F WCI  14

$$

MOZ001>008-011>017-020>025-030>033-038>040-044>046-053-054-172300-
...NORTHERN AND CENTRAL MISSOURI...

CITY           SKY/WX    TMP DP  RH WIND       PRES   REMARKS
ST. JOSEPH     SUNNY     25  10  53 SW14      30.50F WCI  13
MOSBY          CLEAR     28   9  43 SW9       30.52F WCI  20
WARRENSBURG    SUNNY     23  10  58 S12       30.56F WCI  12
WHITEMAN AFB   MOSUNNY   22   9  57 SW12      30.51F WCI  10
CLINTON        SUNNY     23  10  58 SW8       30.58F WCI  14
SEDALIA        SUNNY     22  12  65 SW10      30.56F WCI  11
WARSAW         NOT AVBL
CHILLICOTHE      N/A     25  10  53 SW7       30.52F WCI  17
KIRKSVILLE     SUNNY     22  12  65 SW8       30.49S WCI  12

$$

MOZ041-047>049-056>058-063>065-088>090-097-172300-
...EASTERN AND SOUTHERN MISSOURI...

CITY           SKY/WX    TMP DP  RH WIND       PRES   REMARKS
ST. LOUIS INTL MOSUNNY   24  10  55 W14       30.58F WCI  12
SPIRIT OF STL  SUNNY     25  11  55 W7        30.58F WCI  17
COLUMBIA       SUNNY     22  11  62 SW9       30.55F WCI  12
JEFFERSON CITY SUNNY     23   9  55 SW7       30.59F WCI  15
ROLLA          SUNNY     22   9  57 SW9       30.56S WCI  12
OSAGE BEACH    SUNNY     26  10  50 SW7       30.58F WCI  18
SPRINGFIELD    SUNNY     20   9  62 S8        30.56F WCI  10
BRANSON        SUNNY     25   7  46 CALM      30.58F
JOPLIN         SUNNY     21  10  62 S5        30.59F WCI  15
WEST PLAINS    SUNNY     25   8  48 W5        30.58S WCI  19

$$

IAZ060-094-KSZ022-034>040-054-083-096-NEZ052-066-093-172300-
...KANSAS...SOUTHEAST NEBRASKA AND IOWA...

CITY           SKY/WX    TMP DP  RH WIND       PRES   REMARKS
TOPEKA         SUNNY     26  13  57 S13       30.51F WCI  15
MANHATTAN      SUNNY     30  13  49 S10       30.47F WCI  21
EMPORIA        SUNNY     26  15  63 S13       30.50F WCI  15
CHANUTE        SUNNY     22  12  65 S12       30.57S WCI  10
WICHITA        SUNNY     33   6  32 S17       30.47F WCI  22
OMAHA          SUNNY     28  13  53 S14       30.39S WCI  17
LINCOLN        SUNNY     30  11  45 SW15      30.40S WCI  19
FALLS CITY     SUNNY     28  10  46 SW13      30.46S WCI  17
LAMONI         SUNNY     23   8  52 SW16      30.43F WCI  10
DES MOINES     SUNNY     25   9  50 SW16      30.39S WCI  12

$$





USA.gov is the U.S. government's official web portal to all federal, state and local government web resources and services.